Location: Taupo
(38.6830°S, 176.0830°E)
Time: 02:33:16
(UTC+13:00)

Cosmos 1606 - Pass Details

Date: 24 January 2019
Orbit: 506 x 528 km, 82.5° (Epoch: 16 February)

Event Time Altitude Azimuth Distance (km) Brightness Sun altitude
Exits shadow 23:25:34 52° 246° (WSW) 674 3.4 -25.4°
Drops below altitude 10° 23:29:14 10° 183° (S) 1,806 6.2 -25.8°
Sets 23:31:27 0° 177° (S) 2,703 7.2 -26.0°
